Location: Newark
(35.5300°N, 14.3000°E)
Time: 13:36:16
(UTC+00:00)

Explorer 11/Cluster Stage 4 - Pass Details

Date: 20 November 2019
Orbit: 467 x 1259 km, 28.8° (Epoch: 05 December)

Event Time Altitude Azimuth Distance (km) Brightness Sun altitude
Rises 17:53:27 0° 231° (SW) 2,935 10.4 -24.2°
Reaches altitude 10° 17:55:51 10° 219° (SW) 2,143 9.4 -24.7°
Enters shadow 18:00:08 29° 161° (SSE) 1,428 7.7 -25.6°
